Wetbulb
73.02 74.79 77.37 78.57 78.72 79.09 79.19 78.80 78.60 78.75 78.95 78.88 78.41 77.79 77.40 77.04 77.04 77.16 76.83 76.73 76.36 76.74 77.07 77.15 77.48 78.21 77.27 77.08 77.05 77.19 77.06 77.33 78.07 76.98 75.81 77.14 76.92 76.89 76.26 76.80 76.29 73.27 75.08
74.25 75.10 77.68 78.29 78.89 78.98 79.09 78.82 78.96 79.18 78.79 78.76 78.50 78.04 77.57 77.08 77.21 76.86 76.26 76.33 76.49 76.39 76.72 76.96 77.08 77.43 77.55 76.51 76.37 76.39 76.55 76.99 77.02 76.10 75.87 75.93 76.43 76.26 75.99 76.23 76.29 76.19 75.36
74.20 75.20 76.06 77.94 78.38 78.82 78.46 78.39 78.61 78.58 77.96 77.72 77.92 77.76 77.17 77.03 76.78 76.51 76.33 76.24 76.33 76.39 76.39 76.64 76.78 76.87 77.56 77.51 76.48 76.23 76.20 76.14 76.26 75.74 75.60 74.72 75.16 75.29 75.47 75.61 75.84 76.16 76.44
74.57 74.80 75.33 77.68 78.30 78.16 78.17 78.25 78.21 77.98 77.15 77.24 77.32 77.38 77.04 76.66 76.68 76.39 76.36 76.51 76.68 76.74 76.47 76.39 76.45 76.84 76.87 77.38 77.24 76.29 76.17 76.78 76.96 76.36 74.24 74.06 73.45 74.93 75.15 75.06 75.06 75.00 75.00
74.96 75.22 75.96 78.25 78.42 77.89 77.58 77.71 78.04 78.06 77.34 77.06 76.93 76.93 76.77 76.79 76.77 76.85 76.66 76.58 76.60 76.81 77.08 76.83 76.48 76.65 77.00 77.22 77.58 76.89 76.65 77.34 76.80 75.19 74.89 75.98 73.81 74.80 75.42 75.71 75.93 76.33 75.85
75.37 75.76 77.04 78.04 77.51 78.08 77.92 77.58 77.30 77.15 77.22 77.16 77.26 76.93 76.93 77.05 77.16 76.75 76.64 76.30 76.19 76.00 76.17 76.47 76.15 76.20 76.76 76.96 77.01 76.91 76.72 76.79 75.96 75.60 76.60 76.20 74.71 75.54 76.07 76.64 76.50 76.74 76.81
74.89 75.83 75.78 77.99 77.91 77.75 77.92 77.88 77.80 77.37 77.07 77.01 76.68 76.44 76.42 76.42 76.61 76.72 76.91 76.28 76.14 76.14 76.14 75.93 75.41 75.98 75.79 76.12 76.29 76.77 75.48 74.82 75.12 75.97 76.34 76.50 75.30 76.59 76.73 76.56 76.51 76.40 76.37
74.17 74.77 75.58 77.32 77.85 77.77 77.51 77.04 77.25 77.02 76.77 76.79 76.58 76.25 76.25 76.01 76.12 76.45 76.36 76.11 76.22 76.14 75.68 75.73 75.48 75.14 75.40 75.24 75.26 75.93 75.74 75.61 74.24 74.98 75.58 76.21 75.32 75.97 76.59 76.55 76.36 76.20 76.61
74.29 75.36 75.70 75.54 76.41 77.38 78.09 77.59 77.02 77.16 76.89 76.47 76.22 76.39 76.58 75.87 75.84 76.20 76.19 76.42 75.68 75.40 74.99 74.99 75.26 75.28 75.43 75.37 75.21 75.37 74.79 75.64 74.32 73.76 73.89 74.44 72.82 75.32 75.91 75.34 76.23 76.47 75.83
73.82 74.29 75.08 75.84 75.57 76.37 76.74 77.19 77.17 76.70 76.40 76.68 76.51 76.47 76.22 76.15 75.93 75.93 76.18 75.95 75.26 75.54 75.71 75.38 75.59 75.15 75.11 75.40 74.79 74.93 74.46 75.42 74.13 73.66 73.69 73.70 69.32 74.34 76.19 75.48 76.46 76.18 75.73
73.15 73.63 75.07 75.86 76.43 76.54 76.18 75.45 75.07 74.41 74.26 75.35 76.65 76.72 76.06 76.44 75.96 76.68 76.21 75.68 75.42 75.43 75.51 75.40 75.65 75.65 75.40 75.31 75.14 75.04 75.12 74.59 74.35 74.00 72.39 72.42 70.87 72.78 75.49 75.64 76.13 76.48 75.86
71.88 73.66 74.69 75.48 74.58 75.16 74.24 73.34 72.60 72.51 72.51 71.53 73.25 76.12 76.26 76.84 76.83 76.35 75.85 75.53 75.65 75.37 75.21 75.32 75.54 75.48 75.62 75.26 75.62 75.43 74.71 75.14 75.33 75.00 74.38 72.54 71.98 72.64 75.08 75.01 76.34 76.17 76.12
72.47 73.84 74.82 75.57 76.20 73.96 73.69 73.79 72.68 71.86 71.30 70.30 72.59 76.07 76.43 76.40 76.67 76.83 75.24 75.54 73.77 75.15 76.32 75.34 76.17 76.02 75.87 75.42 75.26 74.85 75.09 75.05 74.52 75.35 75.59 74.29 74.30 73.87 74.99 74.81 75.28 76.00 75.95
72.49 73.49 74.41 75.40 75.85 75.93 73.93 73.45 72.86 72.60 72.22 73.05 74.53 76.20 75.96 75.24 75.74 75.85 73.93 72.98 75.29 75.32 74.70 75.83 75.07 76.09 75.93 75.71 75.13 74.45 73.72 74.23 74.39 74.61 75.44 74.24 75.01 75.75 76.43 75.61 75.48 76.43 76.02
72.11 72.97 73.89 74.95 75.37 75.51 75.11 73.48 72.75 74.31 73.93 73.24 73.67 74.65 74.57 74.76 75.22 75.51 73.85 72.97 74.73 74.65 73.97 73.90 74.84 74.26 74.71 74.44 74.09 72.67 72.04 73.45 73.67 73.51 73.57 73.38 73.69 74.84 76.22 76.91 76.36 76.93 76.68
72.40 72.68 74.03 74.30 75.16 75.12 74.86 73.72 72.88 71.78 73.90 73.52 72.39 73.77 75.37 74.90 75.10 74.74 73.02 72.20 73.55 74.17 73.60 72.72 73.46 74.65 74.89 74.35 73.76 72.41 72.07 72.35 73.19 73.30 73.41 74.32 74.05 75.22 76.37 77.02 77.05 77.63 77.24
72.19 72.91 73.44 74.05 74.71 74.54 74.10 74.04 73.52 71.91 73.00 73.00 72.01 73.46 74.62 75.14 74.85 74.10 72.13 71.80 72.43 73.96 73.58 73.04 73.30 74.78 74.66 73.89 73.10 72.93 73.04 73.45 73.54 74.30 75.48 75.61 76.30 75.74 76.91 77.15 77.51 77.67 76.78
71.89 72.39 73.69 73.50 73.82 73.79 73.32 72.90 73.03 73.52 72.27 72.56 72.84 73.12 74.07 75.36 75.36 74.62 72.89 73.13 74.13 74.20 74.35 73.95 74.41 73.88 74.29 74.27 73.85 74.64 75.24 75.12 75.18 75.73 75.47 75.74 76.31 76.72 76.72 77.34 77.36 77.27 76.78
71.69 72.59 72.96 73.79 73.36 73.49 73.56 72.94 72.94 73.67 73.54 73.00 72.86 72.87 74.24 74.94 75.36 74.88 73.27 72.86 73.16 73.66 74.60 74.15 74.46 75.32 75.59 74.60 74.54 74.50 74.34 74.41 74.98 75.30 75.20 74.63 75.08 75.77 76.06 76.57 77.45 77.45 76.53
72.60 72.95 73.32 73.25 73.96 74.20 73.49 73.37 73.22 73.26 73.56 73.82 73.16 73.19 73.75 74.32 75.20 75.10 74.23 73.13 74.37 74.21 74.03 73.47 74.72 76.06 75.26 74.60 73.82 73.15 73.59 73.45 74.04 74.73 74.73 75.46 75.69 74.83 75.04 75.20 75.07 74.59 76.59
72.60 72.86 73.00 72.50 73.11 73.63 72.54 72.26 72.41 72.57 72.66 73.43 73.61 72.32 73.93 74.48 74.53 75.22 74.48 74.43 73.49 73.52 73.99 74.74 74.96 75.10 73.87 73.96 72.78 72.11 71.59 72.74 72.98 73.31 74.13 74.78 74.76 75.35 75.71 74.95 74.99 74.58 74.53
72.44 72.72 73.23 72.93 73.17 73.05 73.12 73.59 73.68 72.30 73.66 73.13 74.02 73.59 73.96 74.69 75.28 74.91 75.45 74.74 74.94 73.71 74.20 74.21 74.96 75.31 74.43 73.82 71.90 70.92 67.72 69.22 70.43 71.87 72.80 73.63 74.34 73.80 74.36 75.57 75.53 74.78 74.68
72.42 72.78 73.23 73.67 73.00 72.67 74.09 74.11 74.01 74.21 74.26 73.75 73.77 73.75 73.64 75.07 74.81 75.41 75.72 75.58 75.42 73.58 72.91 73.94 75.83 74.30 73.53 72.42 71.37 69.75 66.66 65.18 66.84 70.97 70.69 71.67 72.68 73.51 74.14 74.38 75.41 75.72 75.37
72.64 73.52 74.05 74.19 74.22 74.19 74.31 73.86 73.64 72.59 72.12 73.66 75.70 75.91 74.98 75.48 75.31 74.30 75.74 75.83 75.61 74.68 73.96 73.09 75.26 74.81 74.71 74.10 71.17 71.15 70.21 68.45 65.73 66.58 70.77 71.25 72.07 72.54 72.91 73.85 74.07 75.45 76.32
73.01 73.02 73.81 74.50 74.62 74.94 74.81 75.12 73.89 73.54 73.81 74.27 74.31 74.84 75.59 76.21 75.70 74.30 75.41 75.90 75.32 74.49 73.79 73.42 74.94 75.13 74.51 75.74 71.47 71.34 70.53 70.13 68.73 67.96 67.21 70.39 71.31 72.42 72.63 73.74 75.06 75.39 76.07
72.82 73.02 73.49 73.96 74.44 74.84 74.52 74.56 74.48 74.24 74.17 73.38 73.74 73.50 73.86 74.49 74.91 75.58 74.96 75.92 75.63 75.11 73.67 73.00 74.21 74.52 75.06 75.89 72.70 72.04 70.53 69.80 69.90 69.57 69.44 71.22 70.09 73.10 73.41 73.82 74.22 75.23 75.94
MSLP
1015.35 1015.57 1016.06 1016.09 1016.16 1016.32 1016.62 1016.87 1017.15 1017.45 1017.85 1018.02 1018.11 1018.31 1018.50 1018.67 1018.85 1019.02 1019.16 1019.20 1019.18 1019.26 1019.30 1019.30 1019.32 1019.44 1019.58 1019.69 1019.86 1019.97 1020.13 1020.22 1020.35 1020.71 1020.92 1021.06 1021.17 1021.33 1021.55 1021.69 1021.67 1021.63 1022.13
1014.87 1015.45 1015.95 1016.20 1016.40 1016.56 1016.71 1017.17 1017.50 1017.76 1018.04 1018.19 1018.34 1018.35 1018.57 1018.89 1019.11 1019.20 1019.29 1019.34 1019.42 1019.50 1019.58 1019.66 1019.70 1019.81 1019.88 1019.97 1020.18 1020.25 1020.29 1020.37 1020.55 1020.73 1021.01 1021.20 1021.33 1021.53 1021.73 1021.90 1021.90 1022.16 1022.29
1015.29 1015.71 1015.95 1016.18 1016.61 1016.88 1017.18 1017.35 1017.68 1017.90 1018.11 1018.39 1018.54 1018.60 1018.76 1019.03 1019.25 1019.32 1019.42 1019.51 1019.62 1019.72 1019.85 1019.92 1019.96 1020.08 1020.17 1020.29 1020.38 1020.51 1020.55 1020.63 1020.74 1020.90 1021.06 1020.99 1021.33 1021.92 1022.07 1022.22 1022.38 1022.55 1022.60
1015.00 1015.62 1016.03 1016.42 1016.67 1017.08 1017.39 1017.63 1017.89 1018.08 1018.31 1018.57 1018.74 1018.82 1018.88 1019.06 1019.31 1019.35 1019.45 1019.62 1019.84 1019.88 1019.95 1020.11 1020.18 1020.25 1020.37 1020.41 1020.55 1020.75 1020.92 1020.86 1020.85 1021.07 1020.92 1021.06 1021.34 1022.13 1022.28 1022.45 1022.59 1022.74 1022.82
1015.26 1015.64 1016.15 1016.70 1016.83 1017.20 1017.65 1017.98 1018.08 1018.23 1018.53 1018.75 1018.92 1018.97 1019.04 1019.11 1019.32 1019.37 1019.49 1019.64 1019.91 1019.93 1020.03 1020.21 1020.29 1020.37 1020.49 1020.59 1020.69 1020.95 1021.12 1021.11 1021.19 1021.16 1021.30 1021.42 1021.33 1022.15 1022.44 1022.59 1022.74 1022.80 1022.84
1015.52 1015.85 1016.54 1016.83 1017.16 1017.44 1017.78 1018.06 1018.29 1018.51 1018.76 1018.90 1018.91 1019.05 1019.15 1019.19 1019.27 1019.37 1019.45 1019.66 1019.92 1019.98 1020.20 1020.30 1020.57 1020.48 1020.55 1020.75 1020.81 1021.12 1021.30 1021.40 1021.46 1021.29 1021.51 1021.72 1021.55 1022.22 1022.43 1022.54 1022.68 1022.85 1023.06
1015.69 1015.91 1016.79 1017.05 1017.34 1017.61 1017.93 1018.27 1018.51 1018.66 1018.90 1019.14 1019.13 1019.14 1019.27 1019.35 1019.35 1019.46 1019.54 1019.70 1019.93 1020.07 1020.26 1020.36 1020.52 1020.60 1020.63 1020.73 1020.94 1021.05 1021.35 1021.58 1021.44 1021.50 1021.61 1021.68 1021.83 1022.32 1022.50 1022.64 1022.74 1022.93 1023.11
1015.80 1016.33 1016.75 1017.18 1017.42 1017.76 1018.03 1018.38 1018.69 1018.86 1019.01 1019.10 1019.22 1019.25 1019.40 1019.48 1019.56 1019.60 1019.77 1019.88 1019.97 1020.16 1020.36 1020.49 1020.71 1020.76 1020.72 1020.72 1020.91 1020.97 1021.09 1021.48 1021.56 1021.60 1021.80 1021.75 1022.27 1022.47 1022.57 1022.80 1022.84 1022.99 1023.14
1016.01 1016.53 1016.74 1017.10 1017.50 1017.84 1018.20 1018.59 1018.88 1019.10 1019.30 1019.46 1019.36 1019.36 1019.52 1019.55 1019.63 1019.72 1019.91 1019.98 1020.04 1020.15 1020.43 1020.70 1020.84 1020.93 1020.77 1020.83 1020.86 1020.99 1021.13 1021.39 1021.42 1021.42 1021.65 1021.89 1022.55 1022.65 1022.62 1022.80 1022.96 1022.94 1023.17
1016.17 1016.36 1016.76 1017.15 1017.42 1017.84 1018.18 1018.54 1018.98 1019.42 1019.72 1019.67 1019.61 1019.55 1019.59 1019.61 1019.66 1019.73 1019.88 1020.07 1020.12 1020.14 1020.31 1020.56 1020.74 1020.94 1020.97 1021.03 1021.12 1021.19 1021.25 1021.47 1021.38 1021.53 1021.62 1021.74 1022.53 1022.71 1022.77 1022.77 1022.87 1022.93 1023.03
1016.41 1016.53 1016.97 1017.42 1017.68 1018.13 1018.72 1018.89 1019.61 1019.80 1020.19 1020.21 1019.85 1019.64 1019.71 1019.48 1019.40 1019.54 1019.64 1020.05 1020.21 1020.22 1020.32 1020.43 1020.65 1020.92 1021.06 1021.11 1021.20 1021.31 1021.31 1021.12 1021.34 1021.41 1021.50 1021.94 1022.42 1022.54 1022.58 1022.64 1022.73 1022.80 1022.93
1016.17 1016.45 1017.07 1017.38 1017.88 1018.20 1018.91 1019.61 1019.91 1020.58 1020.50 1020.47 1020.25 1019.76 1019.73 1019.75 1019.66 1019.54 1019.78 1019.99 1020.00 1020.18 1020.26 1020.43 1020.63 1020.79 1020.94 1020.65 1020.79 1021.24 1020.84 1021.13 1021.22 1021.21 1021.18 1021.93 1022.15 1022.26 1022.32 1022.47 1022.58 1022.72 1022.84
1015.90 1016.33 1016.84 1017.22 1017.75 1018.26 1018.60 1019.29 1019.80 1019.93 1020.32 1020.50 1020.31 1019.73 1019.70 1019.87 1019.77 1019.77 1020.12 1020.25 1020.09 1020.22 1020.34 1020.35 1020.45 1020.41 1020.55 1020.65 1020.84 1020.78 1021.07 1021.11 1021.02 1020.96 1020.98 1021.78 1021.94 1022.05 1022.03 1022.14 1022.34 1022.53 1022.71
1015.87 1016.32 1016.83 1017.10 1017.57 1017.69 1018.47 1019.12 1019.45 1019.90 1019.92 1019.86 1019.92 1019.67 1019.71 1019.73 1019.73 1019.65 1020.08 1020.34 1020.13 1020.24 1020.39 1020.62 1020.49 1020.66 1020.66 1020.80 1020.81 1020.83 1020.83 1020.82 1020.76 1020.84 1020.82 1021.50 1021.58 1021.74 1021.84 1021.83 1022.07 1022.23 1022.50
1015.90 1016.28 1016.76 1017.23 1017.70 1017.96 1018.19 1018.78 1019.16 1019.39 1019.35 1019.39 1019.48 1019.58 1019.60 1019.68 1019.67 1019.62 1020.06 1020.28 1020.19 1020.37 1020.49 1020.69 1020.69 1020.52 1020.57 1020.62 1020.75 1020.87 1020.74 1020.73 1020.76 1020.63 1020.61 1021.10 1021.27 1021.35 1021.39 1021.49 1021.74 1021.88 1022.14
1015.79 1016.12 1016.72 1017.24 1017.64 1017.99 1018.23 1018.77 1018.90 1019.33 1019.13 1019.41 1019.30 1019.35 1019.54 1019.61 1019.66 1019.84 1020.08 1020.28 1020.12 1020.22 1020.52 1020.62 1020.70 1020.37 1020.30 1020.30 1020.55 1020.69 1020.62 1020.57 1020.69 1020.81 1020.54 1020.36 1020.84 1020.89 1020.90 1021.04 1021.41 1021.55 1021.77
1015.57 1016.11 1016.60 1017.11 1017.54 1018.03 1018.27 1018.61 1018.94 1019.19 1019.23 1019.17 1019.41 1019.38 1019.52 1019.57 1019.71 1019.86 1020.09 1020.28 1020.20 1020.13 1020.36 1020.43 1020.59 1020.43 1020.21 1020.34 1020.48 1020.33 1020.31 1020.39 1020.33 1020.45 1020.42 1020.11 1020.00 1020.43 1020.54 1020.72 1021.09 1021.36 1021.51
1015.44 1015.86 1016.47 1016.83 1017.20 1017.71 1018.07 1018.58 1018.79 1018.96 1019.09 1019.12 1019.16 1019.16 1019.38 1019.57 1019.65 1019.67 1019.74 1019.75 1019.87 1019.95 1019.91 1019.84 1019.88 1020.00 1020.02 1020.18 1020.20 1020.16 1020.16 1020.10 1020.06 1020.11 1020.12 1020.05 1019.90 1019.70 1020.33 1020.54 1020.80 1021.08 1021.32
1015.37 1015.94 1016.37 1016.72 1016.95 1017.44 1017.92 1018.25 1018.57 1018.79 1018.87 1018.85 1018.99 1018.98 1019.03 1019.31 1019.46 1019.66 1019.82 1019.74 1019.85 1019.75 1019.75 1019.61 1019.49 1019.61 1019.72 1019.85 1019.99 1020.05 1019.93 1019.87 1019.69 1019.51 1019.68 1019.86 1019.91 1019.94 1019.72 1020.23 1020.52 1020.76 1020.98
1015.28 1015.84 1016.18 1016.77 1017.08 1017.47 1017.72 1018.10 1018.21 1018.41 1018.56 1018.68 1018.70 1018.92 1019.04 1019.13 1019.22 1019.45 1019.51 1019.75 1019.68 1019.57 1019.66 1019.44 1019.50 1019.61 1019.69 1019.77 1019.85 1019.81 1019.89 1019.72 1019.57 1019.35 1019.41 1019.37 1019.57 1019.87 1019.92 1019.96 1019.92 1019.98 1020.60
1014.93 1015.39 1015.81 1016.42 1016.73 1017.24 1017.56 1017.79 1017.92 1017.87 1018.21 1018.49 1018.76 1019.03 1019.05 1019.03 1019.12 1019.29 1019.19 1019.43 1019.96 1019.78 1019.58 1019.51 1019.28 1019.30 1019.60 1019.95 1019.87 1019.52 1019.47 1019.52 1019.44 1019.26 1019.23 1019.21 1019.23 1019.35 1019.57 1019.75 1019.75 1019.71 1019.79
1014.12 1014.54 1015.21 1015.74 1016.25 1016.67 1016.98 1017.29 1017.51 1017.71 1017.72 1018.17 1018.17 1018.53 1018.68 1018.70 1018.79 1018.95 1018.98 1018.98 1019.33 1019.48 1019.56 1019.46 1019.25 1019.15 1019.46 1019.77 1019.73 1019.83 1019.02 1018.83 1019.00 1018.92 1018.98 1018.94 1018.94 1019.02 1019.20 1019.37 1019.47 1019.67 1019.79
1013.49 1013.93 1014.52 1015.17 1015.85 1016.34 1016.68 1016.96 1017.32 1017.50 1017.44 1017.59 1017.77 1017.90 1018.19 1018.28 1018.48 1018.65 1018.70 1018.71 1018.78 1019.24 1019.15 1019.23 1019.03 1019.14 1019.29 1020.01 1020.37 1019.93 1019.40 1018.60 1018.65 1018.53 1018.60 1018.53 1018.62 1018.71 1018.86 1019.07 1019.15 1019.28 1019.47
1012.67 1013.28 1013.89 1014.60 1015.14 1015.78 1016.33 1016.52 1016.58 1016.49 1016.59 1016.76 1016.99 1017.31 1017.46 1017.80 1017.95 1018.31 1018.41 1018.44 1018.54 1018.66 1018.95 1019.04 1018.99 1019.15 1019.22 1019.40 1020.15 1020.32 1020.13 1019.72 1018.88 1017.88 1018.12 1018.09 1018.32 1018.36 1018.42 1018.53 1018.58 1018.76 1018.98
1012.20 1012.81 1013.39 1014.06 1014.66 1015.18 1015.75 1016.02 1016.14 1016.23 1016.05 1016.21 1016.57 1016.91 1017.11 1017.23 1017.63 1017.90 1018.04 1018.16 1018.32 1018.40 1018.60 1018.83 1018.82 1018.88 1018.94 1019.00 1019.32 1019.71 1019.86 1019.65 1019.47 1018.81 1017.64 1017.50 1017.92 1017.95 1017.93 1018.03 1017.86 1018.09 1018.31
1011.64 1012.15 1012.79 1013.70 1014.20 1014.70 1015.21 1015.53 1015.87 1015.83 1015.97 1016.19 1016.12 1016.22 1016.57 1016.76 1016.84 1017.15 1017.49 1017.74 1017.84 1018.01 1018.27 1018.44 1018.63 1018.79 1018.64 1018.74 1019.16 1019.52 1019.23 1018.94 1018.85 1018.70 1018.03 1017.45 1017.23 1017.11 1017.26 1017.44 1017.48 1017.50 1017.70
Wind_Speed
13 13 11 13 15 17 18 18 17 16 15 16 17 16 16 14 13 12 10 10 11 12 13 14 14 14 15 14 14 13 14 13 15 18 14 14 14 14 14 13 11 13 12
18 16 14 15 16 17 19 19 18 16 15 15 16 16 16 14 12 11 10 10 11 12 12 12 13 12 13 13 13 13 14 13 13 14 14 12 12 13 13 11 8 13 12
18 15 15 16 16 17 17 18 18 17 16 15 15 15 15 14 12 11 9 9 10 10 11 10 11 11 10 13 13 12 13 14 14 14 12 7 10 10 11 11 11 10 12
19 16 16 15 16 16 16 17 18 17 17 15 14 13 13 13 11 10 8 9 9 9 9 9 9 9 9 11 12 11 12 13 14 14 8 7 8 9 10 10 10 10 10
18 16 16 15 16 17 16 16 16 16 16 15 14 12 12 11 10 9 8 8 8 7 8 8 9 8 7 10 11 12 12 11 13 10 8 6 6 9 9 9 10 10 5
18 16 16 17 17 16 15 16 16 16 16 15 13 12 10 10 10 9 9 8 8 7 7 7 6 7 6 8 9 12 11 10 11 9 6 7 5 10 8 7 6 8 9
17 16 15 16 16 16 16 15 15 15 15 13 12 11 10 9 9 8 8 8 7 7 7 5 5 7 6 8 9 11 9 8 6 7 6 6 7 6 6 6 7 7 7
16 13 12 16 16 16 17 16 14 14 15 15 13 11 9 8 7 7 7 7 6 6 7 5 5 5 6 6 7 7 10 11 8 7 6 5 7 3 6 7 7 7 8
15 13 13 13 13 16 15 15 14 13 13 13 12 11 9 7 6 6 6 7 6 6 6 5 5 5 7 7 5 7 6 8 6 4 6 4 4 3 6 6 6 8 6
13 14 13 13 13 11 11 15 13 10 9 11 11 10 9 6 6 6 4 5 5 5 7 7 6 5 6 6 5 6 6 8 4 5 6 4 3 5 7 8 6 7 6
11 12 10 8 9 9 4 6 5 4 3 7 9 9 7 4 6 7 4 4 4 6 7 5 6 7 7 5 5 6 9 4 5 4 5 8 8 9 10 9 9 8 8
15 13 11 10 7 8 7 8 7 5 2 6 5 5 4 4 4 4 4 5 4 5 4 5 6 6 8 4 4 5 5 6 5 4 4 9 12 12 12 11 11 9 10
14 11 12 11 10 6 8 8 5 5 6 6 5 4 4 3 3 3 1 1 1 2 2 4 4 4 5 4 3 3 5 6 4 4 4 8 11 12 13 14 13 10 10
13 12 11 11 10 8 6 6 7 8 7 6 6 4 4 4 4 3 1 2 3 2 3 2 3 3 5 4 5 5 5 5 4 4 4 8 8 11 13 14 13 11 11
13 12 11 10 9 8 7 6 5 5 6 5 5 5 4 4 4 3 1 2 2 2 2 3 3 4 5 5 5 5 6 6 7 5 4 8 10 11 13 15 14 12 12
13 12 11 11 9 8 7 7 4 2 5 5 5 5 6 5 4 3 3 3 3 3 3 2 4 4 4 5 6 6 6 6 6 7 6 6 12 12 12 14 13 11 11
13 12 12 12 11 10 9 7 5 4 5 5 5 7 7 6 4 4 3 3 4 3 5 4 4 5 4 5 6 6 6 6 6 7 7 7 5 10 11 13 11 9 9
12 14 12 11 12 12 10 6 5 5 6 6 6 6 8 7 6 5 3 5 2 3 3 4 4 5 5 4 4 4 4 5 5 5 5 4 3 4 9 11 10 10 11
14 12 12 12 13 12 10 7 7 7 6 6 6 7 8 8 7 5 3 3 4 3 3 4 4 5 3 3 3 4 4 4 4 3 4 4 4 6 5 8 9 9 11
14 12 13 10 11 10 7 6 5 5 6 6 6 6 9 7 8 6 4 4 3 3 4 5 6 4 1 2 3 3 3 4 4 3 4 5 5 6 7 6 5 7 11
14 14 14 13 12 10 8 7 7 8 5 6 5 6 8 9 9 7 6 6 4 6 6 6 6 5 3 3 3 4 5 7 7 6 5 5 5 5 6 7 5 5 5
16 16 15 15 13 11 9 7 5 4 5 3 5 6 9 10 10 8 8 6 6 6 7 7 7 2 2 4 1 2 4 3 5 8 7 6 6 4 5 7 8 8 7
16 17 15 15 14 12 13 7 5 4 4 4 6 7 7 9 10 9 8 8 6 6 6 6 5 6 3 3 4 4 3 2 4 2 7 7 7 6 6 7 8 8 8
16 15 15 15 15 14 15 11 12 9 8 5 4 4 6 10 10 9 9 9 7 5 6 5 5 6 5 4 4 5 5 3 3 3 3 5 6 7 8 6 7 8 9
13 13 13 14 14 13 13 12 11 11 8 6 5 6 7 8 9 9 9 10 9 6 6 6 6 7 6 3 4 3 5 3 4 4 4 1 4 7 6 7 7 7 9
13 13 13 14 13 14 14 14 13 12 10 8 8 6 6 6 7 11 10 10 9 8 8 8 8 8 6 5 3 4 3 2 1 4 4 1 3 1 4 6 7 7 7
Wind_Direction
157 151 144 125 125 131 133 136 135 134 135 136 139 138 140 139 133 128 124 112 104 96 95 93 91 103 98 93 98 107 113 112 106 106 108 98 105 108 100 97 123 101 98
149 153 144 129 129 131 132 133 134 132 136 139 139 142 143 143 141 138 139 124 106 100 97 98 99 96 109 111 112 116 119 118 108 111 109 103 89 94 97 89 94 100 109
148 148 147 134 129 129 130 132 134 135 136 138 141 143 146 147 148 146 145 126 114 105 103 104 108 111 109 124 126 130 129 125 122 117 111 108 107 110 111 113 105 100 102
148 151 150 140 133 132 134 135 134 136 137 135 141 146 148 150 149 152 147 128 117 121 119 116 119 126 137 134 136 139 139 134 129 122 124 116 119 122 125 123 120 116 109
150 152 146 145 140 138 137 136 136 139 142 144 149 152 153 151 150 153 140 128 124 128 123 131 138 137 152 148 143 140 146 137 125 131 129 122 130 127 134 133 140 133 126
151 154 144 148 148 146 144 144 144 146 146 148 151 155 157 155 154 150 137 132 132 135 128 137 155 145 160 155 150 148 134 139 145 131 133 137 148 132 156 145 120 116 125
153 154 153 152 151 152 153 152 150 151 149 151 157 160 166 168 161 149 140 136 129 124 125 139 146 145 160 173 169 170 170 157 167 138 135 145 145 173 153 160 145 143 141
154 154 155 159 160 161 159 159 157 161 160 162 165 167 174 171 164 151 143 142 149 137 137 137 135 151 150 161 166 169 169 160 170 154 149 160 109 178 168 185 176 170 152
155 157 162 164 167 169 165 164 167 174 171 172 172 175 174 174 168 160 164 152 149 151 144 150 149 148 159 146 157 168 164 155 176 180 181 180 147 229 205 211 184 175 170
163 168 169 169 171 172 173 165 179 175 185 182 182 181 174 178 177 176 163 166 168 174 162 161 161 160 160 154 157 170 177 163 194 197 210 181 181 224 236 220 211 207 200
170 176 176 172 174 166 134 162 138 55 308 254 202 186 181 192 186 178 181 187 183 199 180 163 174 154 163 174 182 184 178 179 194 209 222 153 208 222 225 234 223 221 215
179 182 176 177 174 171 130 131 139 159 224 272 294 200 196 181 202 200 226 216 222 204 182 175 181 169 193 188 186 216 205 197 215 210 208 187 209 219 221 227 240 230 223
183 184 184 184 180 153 144 147 151 174 195 230 247 179 177 187 212 204 269 178 226 106 198 195 173 195 188 206 204 220 212 203 216 216 166 197 209 219 230 230 234 237 227
191 193 186 189 188 185 153 146 159 184 190 201 198 173 187 202 213 224 221 257 241 171 169 195 190 187 204 202 216 229 228 238 215 225 200 203 214 225 235 226 229 233 221
194 193 193 190 191 183 169 162 170 177 194 194 192 187 199 212 220 245 230 243 246 212 203 183 214 196 198 218 224 233 231 229 247 232 238 212 232 238 235 229 226 230 222
195 196 193 198 191 189 189 184 189 157 208 204 212 206 207 225 240 240 228 231 255 252 225 200 231 222 216 222 220 228 232 220 229 249 251 228 230 243 227 212 222 228 220
195 196 197 199 193 198 201 198 208 213 219 220 229 219 224 222 226 214 234 243 269 279 238 230 212 221 213 215 230 225 229 235 236 242 254 256 224 224 210 200 212 229 231
200 200 198 198 200 200 206 199 219 219 224 227 229 230 227 219 218 233 246 253 263 240 230 232 217 218 215 216 213 235 238 240 235 237 255 259 244 240 191 201 208 221 236
199 198 203 202 206 204 205 218 222 230 236 237 236 234 229 227 219 231 238 245 228 227 251 256 221 231 189 193 210 220 231 254 253 239 241 240 246 254 231 176 214 220 237
195 199 206 203 209 201 200 212 229 230 228 236 240 238 240 238 238 227 233 220 222 237 234 250 256 209 225 198 200 225 251 253 258 250 255 241 232 239 248 247 216 220 226
190 197 203 199 206 195 195 199 219 226 218 234 238 245 246 241 244 238 234 228 206 244 254 251 258 244 182 174 230 246 260 244 254 243 234 235 224 235 246 243 238 238 221
192 199 201 203 196 196 195 201 214 195 220 200 220 222 238 248 241 238 241 228 208 239 242 238 239 251 180 199 253 315 282 203 236 239 232 231 237 240 254 248 244 236 246
197 200 199 202 197 198 201 194 190 202 222 210 215 234 224 235 240 231 237 243 219 221 246 245 240 240 189 187 218 287 255 285 319 174 221 228 240 238 250 258 244 235 236
202 200 200 199 198 200 193 199 204 211 221 227 231 230 236 222 229 230 242 246 244 244 239 234 235 241 252 192 194 228 267 309 315 313 188 230 233 240 244 242 234 229 231
196 198 201 198 198 200 197 210 206 221 230 233 233 234 234 230 221 218 233 240 249 242 248 242 234 228 233 233 202 173 215 225 235 274 323 152 220 232 239 232 223 223 224
192 192 191 197 201 198 199 202 215 225 224 231 228 224 246 243 221 222 217 230 238 239 237 238 246 236 244 238 204 190 214 256 220 244 263 297 281 171 209 215 227 223 225